STARLINK-1354, 45562

Orbit data source: Space-Track

STARLINK-1354, 45562 is a payload satellite owned by SpaceX/Seattle (US) in LEO that was launched on Wed, 22 Apr 2020 UTC via an FALCON 9 launch vehicle from the Air Force Eastern Test Range (AFETR). Payloads include a variety of satellites, spacecraft, and rockets equipped with specific instruments for various scientific and technological missions. These include communications satellites like Starlink; space stations such as the ISS; scientific satellites like the Hubble; Earth observation satellites from companies like Planet Labs, Umbra, and HawkEye 360; GPS; miniature CubeSats for education and research; and military/defense satellites.

Not visible in the next 10 days
STARLINK-1354 details
Identifier
45562, 2020-025AH
Orbit
LEO
Last TLE update8 hours ago
Origin
Flag of USSpaceX/Seattle (US)
ManufacturerSpaceX/Seattle
MissionPartially operational Commercial Communications
Bus & MotorSTARLINK, Unknown motor
Mass260 kg wet, ~248 kg dry
Launch date (UTC)
2020-04-22 (5 years ago)
Launch vehicle
FALCON 9
Launch site
Air Force Eastern Test Range (AFETR)
Object type
Payload
Rocket body
Debris
Shape & HBRBox + 1 Pan, 8.86 m
Radar Cross Section13.562 m², Large (>1 m²)

Expand to show TLE details & history

TLE from 8 hours ago
0 STARLINK-1354
1 45562U 20025AH  24361.13903857  .00969627  57228-3  91231-3 0  9998
2 45562  53.0445 223.4206 0006419 222.6487 137.4049 16.11491975259104
Epoch: 2024-12-26T03:20Z
Definitive object data (Epoch: 2024-12-26T03:20:12.932Z)
Latitude-0.00007°
Longitude78.24394°
Altitude246.802 km
Speed7.758 km/s
True Right ascension14h 53m 40s
True Declination0° 00' 00"
Sunlit
Object was in daylight at TLE epoch
Visualization TLE readout
Latitude-3.89154°
Longitude-100.63709°
Altitude239.215 km
Speed7.766 km/s
Apparent Right ascension01h 15m 58s
Apparent Declination-24° 25' 56"
Sunlit
Object is in full shadow
Visualization observer readout
Local Sidereal Time10:53:49
Azimuth286.64° WNW
Elevation-56.475°
Doppler factor1
Orbital elements
Apogee altitude247.288 km
Perigee altitude238.788 km
Semi-major axis6,621.175 km
Eccentricity0.0006419
Inclination53.0445°
RAAN223.4206°
Arg. of periapsis222.6487°
True anomaly137.45465°
Mean anomaly137.4049°
Eccentric anomaly137.42978°
Mean motion4.02847 °/min
BSTAR0.00091231
Orbital period89.36 mins
Loading maneuver chart data...
Loading historical data...
Loading historical data...
Loading historical data...
Loading historical data...
Loading historical data...
Loading historical data...
Loading historical data...

STARLINK-1354 Visibility forecast

Observer location: undefined°, undefined

STARLINK-1354 is not visible in the next 10 days
Span
Click to sort rows by Start time (UTC) header in descending order
Start Az.
Max El. time (UTC)
Max El. Az.
Max El.
End time (UTC)
End Az.
|